Date,TemperatureHighF,TemperatureAvgF,TemperatureLowF,DewpointHighF,DewpointAvgF,DewpointLowF,HumidityHigh,HumidityAvg,HumidityLow,PressureMaxIn,PressureMinIn,WindSpeedMaxMPH,WindSpeedAvgMPH,GustSpeedMaxMPH,PrecipitationSumIn
2013-3-1,45,38,29,33,30,27,100,74,57,29.82,29.64,12,3,12,0.00
2013-3-2,40,35,31,28,25,22,76,67,58,29.82,29.73,10,4,10,0.00
2013-3-3,37,32,27,24,21,19,76,64,54,29.82,29.72,13,4,13,0.00
2013-3-4,41,34,29,25,22,18,70,61,50,29.96,29.81,20,5,20,0.00
2013-3-5,49,38,32,32,27,24,82,66,49,30.04,29.94,8,2,8,0.00
2013-3-6,42,38,33,37,34,28,92,84,74,29.95,29.76,18,7,18,0.13
2013-3-7,46,40,35,34,30,27,87,71,55,30.10,29.93,15,4,15,0.00
2013-3-8,43,36,30,35,30,27,94,82,66,30.23,30.05,12,4,12,0.16
2013-3-9,60,42,28,32,27,23,84,59,28,30.32,30.20,9,2,9,0.00
2013-3-10,57,41,26,39,32,23,94,73,45,30.37,30.25,5,1,5,0.00
2013-3-11,60,47,36,49,42,33,97,85,47,30.31,30.05,7,1,7,0.00
2013-3-12,58,52,40,57,49,36,98,92,77,30.06,29.67,18,2,18,1.16
2013-3-13,49,40,31,36,31,25,93,71,52,29.95,29.82,17,3,17,0.00
2013-3-14,42,35,29,25,20,16,80,55,40,30.00,29.90,20,5,20,0.00
2013-3-15,51,40,26,35,25,16,68,55,47,30.02,29.73,13,2,13,0.00
2013-3-16,46,37,33,34,30,26,94,79,61,29.93,29.76,4,1,4,0.03
2013-3-17,40,34,28,32,25,21,94,73,54,30.30,29.93,9,1,9,0.15
2013-3-18,40,33,27,34,25,15,95,75,55,30.38,29.92,13,3,13,0.43
2013-3-19,50,40,36,41,34,22,97,79,44,29.92,29.70,13,4,13,0.39
2013-3-20,48,38,30,28,23,20,69,55,37,29.93,29.78,17,3,17,0.00
2013-3-21,38,34,29,30,22,15,91,64,43,29.83,29.67,12,3,12,0.01
2013-3-22,42,34,27,25,22,16,75,61,48,29.93,29.78,13,3,13,0.00
2013-3-23,47,38,30,28,23,21,71,56,42,29.96,29.87,13,4,13,0.00
2013-3-24,47,38,26,29,24,21,82,58,42,29.98,29.69,10,1,10,0.00
2013-3-25,38,36,33,35,32,28,95,87,68,29.70,29.48,9,2,13,0.38
2013-3-26,52,42,34,38,34,30,95,76,45,29.91,29.63,10,2,10,0.01
2013-3-27,52,42,30,35,32,28,94,70,44,30.03,29.90,15,3,15,0.00
2013-3-28,48,41,30,34,31,26,92,68,51,30.15,30.00,12,3,15,0.00
2013-3-29,54,44,30,35,31,26,89,61,46,30.18,30.09,10,2,10,0.00
2013-3-30,59,43,28,36,30,26,94,64,34,30.20,30.09,8,1,11,0.00
2013-3-31,57,43,30,47,36,27,97,80,47,30.14,29.70,12,1,12,0.16